Powrót do katalogu

HADES-SA

SpinnyONE

AktywnyKrótkofalarstwoSSO
NORAD 68446·PAYLOAD·🇪🇸 Spain

Wystrzelony Mar 30, 2026 z Vandenberg Space Force Base

Loading…

Następne Przeloty (najbliższe 24 godziny)

TLE

ŚwieżeSource: AMSAT

Epoka: Sep 14, 2026, 03:11 UTC

1 68446U 26067AG  26257.13278174  .00016781  00000-0  74041-3 0  9996
2 68446  97.4486 214.3133 0008725 115.2575 244.9566 15.21806279 25445

Śledź HADES-SA w czasie rzeczywistym z AllMySat

Download on the App Store